Вернуться в каталог

EXPRESS AT1

АктивенСвязьGEO
NORAD 39612·PAYLOAD·🇷🇺 Russia

Запущен Mar 15, 2014 с Baikonur Cosmodrome

Loading…

TLE

СвежийSource: Space-Track

Эпоха: Sep 14, 2026, 14:09 UTC

1 39612U 14010A   26257.59000774 -.00000105  00000-0  00000-0 0  9998
2 39612   0.4825  84.5694 0004863  80.1776 116.3236  1.00315214 45714

Отслеживайте EXPRESS AT1 в реальном времени с AllMySat

Download on the App Store